This demonstration page uses our WeatherBlox Daily Observations layout. Learn more.

Left ArrowRight Arrow

39.12711, -84.51439

Hourly Observations for June 24, 2016

Temp ( °F °C ) Dew Point ( °F °C ) Humidity (%) Winds ( mph kmh ) Pressure ( in mb ) Visibility ( mi km ) Precip ( " mm )
12:44 am 00:44 Mostly Clear with Mist and Fog 72 22 72 22 100 100 N N/A 29.91 1013 2 2 N/A
12:50 am 00:50 Mostly Cloudy with Fog 70 21 70 21 100 100 N N/A 29.91 1013 1 1 N/A
12:53 am 00:53 Mostly Cloudy with Fog 70 21.1 70 21.1 100 100 NNE 3 6 29.91 1013 1 1 N/A
12:58 am 00:58 Mostly Clear with Mist and Fog 71 21.7 71 21.7 100 100 N N/A 29.91 1013 1 2 N/A
1:00 am 01:00 Clear with Mist and Fog 72 22 72 22 100 100 N N/A 29.91 1013 3 5 N/A
1:05 am 01:05 Mostly Clear with Mist and Fog 70 21.1 70 21.1 100 100 S 3 6 29.91 1013 3 4 N/A
1:34 am 01:34 Clear with Mist and Fog 70 21 70 21 100 100 N N/A 29.91 1013 5 8 N/A
1:53 am 01:53 Mostly Cloudy with Mist and Fog 70 21.1 70 21.1 100 100 N N/A 29.93 1014 5 8 N/A
2:03 am 02:03 Mostly Cloudy with Mist and Fog 72 22 72 22 100 100 N N/A 29.91 1013 2 3 N/A
2:26 am 02:26 Mostly Clear with Mist and Fog 69 20.6 69 20.6 100 100 N N/A 29.91 1013 1 1 N/A
2:37 am 02:37 Clear with Mist and Fog 70 21.1 70 21.1 100 100 N N/A 29.91 1013 2 3 N/A
2:44 am 02:44 Mostly Clear with Mist and Fog 70 21 70 21 100 100 NNE 5 7 29.91 1013 4 6 N/A
2:48 am 02:48 Partly Cloudy with Mist and Fog 70 21 70 21 100 100 NE 7 11 29.91 1013 2 3 N/A
2:53 am 02:53 Mostly Cloudy with Mist and Fog 69 20.6 69 20.6 100 100 ENE 6 9 29.91 1013 1 2 N/A
3:07 am 03:07 Mostly Cloudy with Mist and Fog 70 21.1 70 21.1 100 100 N N/A 29.91 1013 2 2 N/A
3:15 am 03:15 Mostly Cloudy with Fog 70 21.1 70 21.1 100 100 N N/A 29.91 1013 1 1 N/A
3:22 am 03:22 Mostly Cloudy with Fog 70 21 70 21 100 100 ENE 5 7 29.91 1013 0 0 N/A
3:32 am 03:32 Mostly Cloudy with Fog 69 20.6 69 20.6 100 100 NE 5 7 29.91 1013 1 1 N/A
3:42 am 03:42 Mostly Cloudy with Mist and Fog 70 21 70 21 100 100 ENE 3 6 29.91 1013 2 3 N/A
3:53 am 03:53 Partly Cloudy with Mist and Fog 69 20.6 69 20.6 100 100 NE 5 7 29.89 1012 2 3 N/A
4:04 am 04:04 Mostly Cloudy with Mist and Fog 70 21 70 21 100 100 NE 3 6 29.91 1013 3 5 N/A
4:40 am 04:40 Mostly Cloudy 70 21 70 21 100 100 NNE 3 6 29.91 1013 7 11 N/A
4:53 am 04:53 Cloudy 70 21.1 70 21.1 100 100 N N/A 29.91 1013 7 11 N/A
5:22 am 05:22 Cloudy 70 21 70 21 100 100 N N/A 29.91 1013 7 11 N/A
5:53 am 05:53 Cloudy 70 21.1 69 20.6 97 97 E 5 7 29.93 1014 8 13 N/A
6:50 am 06:50 Cloudy 70 21 70 21 100 100 NE 5 7 29.94 1014 7 11 N/A
6:53 am 06:53 Cloudy with Mist and Fog 70 21.1 69 20.6 97 97 NE 3 6 29.94 1014 6 10 N/A
7:08 am 07:08 Cloudy 70 21 70 21 100 100 NNE 7 11 29.94 1014 8 13 N/A
7:39 am 07:39 Cloudy with Rain 70 21.1 69 20.6 97 97 NNE 5 7 29.94 1014 5 8 0.01 0.25
7:53 am 07:53 Cloudy with Rain 70 21.1 70 21.1 100 100 NNE 5 7 29.96 1015 3 5 0.03 0.76
8:53 am 08:53 Cloudy with Mist and Fog 70 21.1 70 21.1 100 100 E 3 6 29.99 1016 4 6 0.06 1.52
9:53 am 09:53 Cloudy with Mist and Fog 71 21.7 70 21.1 96 96 ENE 5 7 30.01 1016 5 8 N/A
10:30 am 10:30 Mostly Cloudy 75 24 72 22 89 89 NNE 3 6 30.00 1016 7 11 N/A
10:53 am 10:53 Mostly Cloudy 75 23.9 71 21.7 88 88 NE 6 9 30.01 1016 8 13 N/A
11:46 am 11:46 Cloudy 79 26 70 21 74 74 NNE 3 6 30.00 1016 10 16 N/A
11:53 am 11:53 Mostly Cloudy 79 26.1 70 21.1 74 74 N N/A 30.02 1017 10 16 N/A
12:53 pm 12:53 Mostly Cloudy 79 26.1 69 20.6 72 72 N N/A 30.03 1017 10 16 N/A
1:53 pm 13:53 Mostly Cloudy 80 26.7 69 20.6 69 69 ENE 5 7 30.02 1017 10 16 N/A
2:53 pm 14:53 Partly Cloudy 83 28.3 68 20 61 61 VRB 6 9 30.02 1017 10 16 N/A
3:53 pm 15:53 Mostly Sunny 85 29.4 69 20.6 59 59 undefined N/A 30.02 1017 10 16 N/A
4:53 pm 16:53 Mostly Cloudy 83 28.3 68 20 61 61 ENE 5 7 30.02 1017 10 16 N/A
5:53 pm 17:53 Cloudy 82 27.8 69 20.6 65 65 E 7 11 30.02 1017 10 16 N/A
6:53 pm 18:53 Partly Cloudy 81 27.2 69 20.6 67 67 E 5 7 30.01 1016 10 16 N/A
7:53 pm 19:53 Mostly Sunny 80 26.7 67 19.4 64 64 NE 7 11 30.02 1017 10 16 N/A
8:53 pm 20:53 Mostly Sunny 76 24.4 71 21.7 85 85 N N/A 30.02 1017 10 16 N/A
9:53 pm 21:53 Clear 71 21.7 69 20.6 94 94 N N/A 30.04 1017 10 16 N/A
10:53 pm 22:53 Clear 68 20 68 20 100 100 N N/A 30.05 1018 9 14 N/A
11:53 pm 23:53 Clear 68 20 68 20 100 100 N N/A 30.07 1018 9 14 N/A

Powered by AerisWeather